This is the latest recevied weather packets stored in our database for station/object KA7EII-13. If no packets are shown the sender has not sent any weather packets the latest 10 day(s).
| Time | Temp. | Humidity | Pressure | Rain* | Wind** | Luminosity | Snow |
|---|---|---|---|---|---|---|---|
| 1777884635 | 7.22° C | 65% | 1098.9 hPa | 0 mm | - | 0 W/m² | - |
| 1777884332 | 7.78° C | 63% | 1098.9 hPa | 0 mm | - | 0 W/m² | - |
| 1777884027 | 7.78° C | 62% | 1098.9 hPa | 0 mm | - | 0 W/m² | - |
| 1777883726 | 8.33° C | 63% | 1098.6 hPa | 0 mm | - | 0 W/m² | - |
| 1777883421 | 8.33° C | 60% | 1098.8 hPa | 0 mm | - | 0 W/m² | - |
| 1777883118 | 8.89° C | 59% | 1098.8 hPa | 0 mm | - | 0 W/m² | - |
| 1777882815 | 9.44° C | 57% | 1098.6 hPa | 0 mm | - | 0 W/m² | - |
| 1777882512 | 9.44° C | 55% | 1098.9 hPa | 0 mm | - | 0 W/m² | - |
| 1777882207 | 10° C | 54% | 1098.8 hPa | 0 mm | - | 0 W/m² | - |
| 1777881904 | 10° C | 54% | 1098.8 hPa | 0 mm | - | 0 W/m² | - |
| 1777881601 | 10° C | 53% | 1098.9 hPa | 0 mm | - | 0 W/m² | - |
| 1777881298 | 10° C | 54% | 1098.8 hPa | 0 mm | - | 0 W/m² | - |
| 1777880995 | 10° C | 54% | 1099 hPa | 0 mm | - | 0 W/m² | - |
| 1777880693 | 9.44° C | 57% | 1098.9 hPa | 0 mm | - | 0 W/m² | - |
| 1777880390 | 8.33° C | 59% | 1098.9 hPa | 0 mm | - | 0 W/m² | - |
| 1777880089 | 8.33° C | 60% | 1099 hPa | 0 mm | - | 0 W/m² | - |
| 1777879787 | 8.33° C | 59% | 1098.9 hPa | 0 mm | - | 0 W/m² | - |
| 1777879484 | 8.89° C | 58% | 1098.6 hPa | 0 mm | - | 0 W/m² | - |
| 1777879181 | 8.89° C | 56% | 1098.8 hPa | 0 mm | - | 0 W/m² | - |
| 1777878878 | 8.89° C | 56% | 1098.6 hPa | 0 mm | - | 0 W/m² | - |
| 1777878575 | 9.44° C | 56% | 1098.8 hPa | 0 mm | - | 0 W/m² | - |
| 1777878272 | 9.44° C | 55% | 1098.8 hPa | 0 mm | - | 0 W/m² | - |
| 1777877967 | 9.44° C | 54% | 1098.8 hPa | 0 mm | - | 0 W/m² | - |
| 1777877664 | 9.44° C | 55% | 1098.9 hPa | 0 mm | - | 0 W/m² | - |
| 1777877362 | 9.44° C | 54% | 1098.8 hPa | 0 mm | - | 0 W/m² | - |
* Rain latest hour (hover to see other rain measurements)
** Current wind speed in m/s (hover to see current wind gust speed)